[Date Prev][Date Next][Thread Prev][Thread Next] - [Date Index][Thread Index][Author Index]
2 Line ISS Keps 8-9
- Subject: [sarex] 2 Line ISS Keps 8-9
- From: "Dave Larsen PhD" <doc@xxxxxxxxxxx>
- Date: Mon, 8 Aug 2005 21:37:36 -0700
ISS
1 25544U 98067A 05220.94279132 .00020603 00000-0 16134-3 0 1065
2 25544 051.6463 350.7909 0001186 234.2707 226.0314 15.71565041383985
----
Via the sarex mailing list at AMSAT.ORG courtesy of AMSAT-NA.
To unsubscribe, send "unsubscribe sarex" to Majordomo@amsat.org
AMSAT Home